Theta_e
325 319 314 313 310 309 305 300 293 291 284 284 280 283 288 291 290 290 291 291 293 295 295 299 296 297 297 294 294 299 300 292 291 287 290 295 306 316 319 329 332 342 342 341 341 341 339 343 345 346 349 350 350 349 348 349 349 349 349 350 350 349 350 350 349 350 350 350 350 349 349 349 349 349 348 347 347 347 346 346 344 343 342 341 340 341 343 342 341 340 340 340 339 340 341 342 343
318 314 311 310 311 308 304 294 287 282 282 282 284 284 286 288 291 288 290 291 292 301 300 302 303 304 304 304 303 301 299 306 296 304 303 307 314 317 322 330 332 343 343 341 339 339 340 340 343 345 349 350 350 349 349 348 348 348 348 348 348 349 349 349 349 349 350 349 349 349 349 349 349 348 347 346 347 347 346 345 344 342 341 340 339 340 342 342 341 340 339 339 339 339 339 341 342
313 314 312 311 307 304 299 296 293 279 282 283 282 284 286 291 289 290 288 291 296 300 297 296 296 295 297 299 298 295 296 307 311 308 311 314 317 319 323 329 334 344 345 341 338 339 340 340 341 344 349 349 350 349 349 348 348 348 347 347 347 348 348 348 349 349 349 348 349 349 348 348 348 347 347 347 346 346 346 345 343 342 341 339 339 339 341 341 341 339 338 338 338 338 338 340 341
312 315 309 307 306 298 293 285 283 284 282 278 281 286 287 289 289 289 291 294 297 295 293 296 297 298 298 296 297 300 299 308 312 311 311 315 313 317 322 328 335 345 344 342 340 340 341 339 341 344 348 349 349 349 348 348 348 347 348 347 347 347 347 347 348 348 349 348 348 348 347 348 348 346 348 346 345 345 345 343 342 341 341 339 338 338 340 341 340 339 338 338 338 337 338 340 341
313 314 308 304 300 299 288 286 281 280 283 281 283 284 287 288 291 289 290 290 289 291 293 295 298 299 299 298 298 296 300 304 304 311 312 312 313 318 321 326 335 344 345 345 344 342 342 339 341 345 346 348 349 349 348 348 348 347 349 348 347 347 346 346 347 347 347 347 347 348 347 348 347 346 347 345 345 344 343 342 341 341 339 338 337 338 339 339 339 339 338 338 337 336 337 339 340
308 306 307 306 302 298 291 288 287 286 283 284 284 288 286 289 290 289 290 291 291 290 292 295 297 297 301 305 304 302 305 304 307 311 312 315 321 322 322 327 342 344 346 346 345 344 343 338 341 343 346 347 349 348 348 347 347 348 347 347 346 346 346 345 345 346 346 346 347 347 347 346 346 347 345 345 344 343 342 342 341 339 338 336 335 336 338 339 339 338 338 337 336 337 337 338 340
310 301 300 302 296 296 290 283 283 281 290 286 289 287 289 288 290 290 292 293 293 295 292 298 298 297 296 299 299 307 310 312 312 315 316 320 320 322 325 329 343 343 345 346 345 343 342 340 343 343 345 347 346 348 348 347 347 347 347 346 346 345 345 345 345 346 346 346 347 347 347 346 346 346 344 343 343 343 342 341 339 338 335 334 334 336 337 339 339 338 337 336 335 337 337 339 340
307 306 298 294 289 287 285 283 285 283 289 287 289 288 288 289 288 290 290 292 293 295 298 296 291 294 294 300 295 306 301 310 315 312 313 317 319 323 326 333 342 343 346 346 344 341 342 340 344 342 342 344 345 347 347 348 347 347 347 346 345 345 345 344 345 346 346 347 347 347 347 347 345 344 343 343 343 342 341 340 339 337 333 332 332 334 336 337 338 337 336 335 334 336 337 338 339
301 300 295 293 288 285 282 286 287 285 286 287 288 288 300 289 287 289 290 290 292 291 297 297 292 294 293 299 297 302 299 304 302 305 315 319 324 329 330 334 340 342 344 346 346 343 342 339 343 339 340 344 346 347 347 347 347 347 346 346 345 345 345 346 346 346 346 347 347 346 345 345 345 344 343 343 343 342 341 340 337 334 332 331 332 333 335 337 337 336 336 334 335 336 337 338 338
298 299 293 291 286 286 281 285 286 289 289 288 289 293 290 289 289 290 291 292 293 293 295 292 292 294 295 296 297 299 301 300 302 316 314 323 327 332 335 335 340 342 343 345 346 345 342 340 340 337 341 345 345 347 347 347 347 347 346 346 345 345 345 346 346 346 346 347 347 346 345 344 343 343 342 343 342 342 340 339 336 333 331 330 331 332 335 336 336 336 335 334 335 335 335 335 335
295 292 292 288 283 282 284 284 282 285 290 287 288 288 289 288 290 289 290 293 290 294 295 293 297 295 296 296 294 298 298 299 313 314 312 323 328 330 333 337 338 343 343 345 345 345 343 342 340 339 340 342 345 345 346 347 347 347 347 347 347 346 345 345 345 346 346 346 345 345 345 343 343 342 343 342 342 341 339 337 335 333 330 329 329 331 334 334 334 334 333 333 332 333 334 333 332
294 290 288 281 283 284 281 284 286 287 287 288 293 292 290 290 291 292 292 293 292 292 293 295 296 294 294 291 295 298 297 303 303 304 314 325 327 328 331 333 337 339 343 344 344 344 344 341 340 339 337 339 339 342 340 343 346 347 347 347 347 346 346 345 346 346 345 345 345 345 344 344 342 342 342 342 341 339 339 337 334 333 331 329 328 330 330 330 330 330 330 330 330 331 332 331 329
291 289 287 287 286 285 284 284 287 291 284 286 291 294 290 291 292 290 289 290 290 292 293 292 294 296 292 293 294 295 301 302 302 312 320 323 323 324 325 325 325 327 327 335 341 342 343 344 343 342 337 333 335 335 336 340 341 345 346 346 346 346 346 346 345 345 345 345 345 345 344 343 342 342 342 341 340 339 338 335 334 334 333 330 328 327 326 325 324 325 326 327 327 328 328 327 325
291 290 288 289 282 283 283 285 283 287 286 288 289 290 291 292 291 290 291 292 292 291 294 294 295 294 294 293 294 294 295 300 306 316 314 316 319 320 321 321 322 322 322 324 326 326 329 330 338 341 339 338 338 333 331 335 338 341 343 343 343 343 345 345 344 344 345 344 342 340 340 339 340 341 341 341 339 338 337 335 333 333 332 331 328 326 324 322 321 322 323 324 324 324 324 322 322
295 288 285 282 282 285 283 286 288 285 287 287 294 291 292 294 289 289 292 291 292 292 295 297 296 295 292 294 290 292 296 302 311 311 311 314 317 318 319 319 319 320 320 320 321 322 322 325 326 329 335 341 339 339 338 335 332 336 339 340 340 341 342 341 340 341 339 338 338 336 335 334 334 335 335 336 336 334 333 331 334 333 332 331 329 326 323 321 320 319 320 321 322 322 321 321 320
291 289 284 286 285 284 286 285 282 284 287 288 292 289 292 293 290 293 292 293 294 295 295 297 296 294 295 293 295 293 297 308 312 308 311 313 316 317 318 318 317 317 317 319 317 320 320 321 322 324 327 329 339 339 336 336 330 331 335 336 338 339 338 337 336 335 330 329 329 329 328 330 329 329 327 332 331 332 331 329 331 332 331 330 330 327 323 322 321 318 319 320 321 321 321 321 319
292 287 285 280 286 285 287 286 286 287 286 288 288 291 292 293 293 294 294 293 295 295 294 295 296 297 293 293 296 298 301 310 311 310 311 310 313 315 316 317 317 316 316 318 316 317 317 318 318 322 324 325 327 338 338 337 334 329 330 329 331 333 334 333 331 325 322 321 324 323 327 333 333 332 333 332 325 330 323 325 329 331 330 330 329 325 324 324 323 320 320 322 320 319 316 316 316
290 285 282 284 280 284 287 288 288 287 289 291 291 290 291 291 293 296 295 294 292 293 295 294 296 299 297 297 298 300 304 313 310 311 306 306 309 314 314 312 315 314 312 312 315 314 314 314 316 319 321 323 325 330 339 336 336 332 333 333 334 331 328 325 328 330 328 328 324 331 335 332 334 334 332 329 330 327 326 323 325 329 331 330 327 325 324 324 324 322 323 322 320 317 312 305 307
287 282 280 285 283 288 289 287 290 290 292 290 290 289 291 292 292 295 293 292 291 294 294 293 295 296 301 301 299 304 309 310 308 307 306 306 307 313 312 308 310 312 313 312 313 313 312 312 315 316 318 321 324 325 339 338 337 336 335 333 331 329 329 329 332 329 330 331 332 334 332 334 334 332 332 330 330 324 326 323 325 328 329 328 327 326 324 324 323 322 322 320 318 314 307 306 305
289 286 288 280 286 287 287 287 290 290 289 291 291 291 291 293 293 293 294 290 291 292 291 293 293 295 297 299 301 302 305 304 304 304 303 301 301 307 308 308 308 309 309 310 310 312 311 311 313 315 316 319 321 321 329 339 337 337 337 335 333 333 333 333 333 332 331 332 332 333 333 333 334 333 328 324 326 329 325 321 321 321 322 321 319 319 322 322 321 320 318 316 312 309 307 307 306
290 285 281 290 286 292 293 287 289 288 290 291 290 290 292 292 291 293 290 292 291 291 291 296 295 294 299 298 298 299 303 303 301 302 301 300 299 300 303 305 308 308 308 308 308 309 310 311 312 313 315 317 321 321 321 334 338 338 338 336 334 333 333 334 333 333 332 332 333 332 333 333 334 332 330 330 330 329 327 326 325 322 319 316 315 313 312 311 310 309 309 309 308 308 307 306 305
288 290 288 288 286 292 293 288 289 288 288 289 288 292 292 293 293 291 291 292 292 292 294 294 294 295 300 299 299 297 301 302 301 300 301 301 302 301 301 301 302 303 305 306 306 307 309 310 310 311 313 316 320 321 319 322 332 337 338 336 334 333 333 333 333 333 333 333 332 332 332 332 333 331 330 330 330 329 328 326 325 324 320 317 316 313 311 310 309 308 308 308 307 307 307 306 305
294 291 288 286 287 293 291 290 290 288 289 289 289 292 292 293 292 289 290 294 292 291 291 291 292 295 301 300 298 299 300 302 300 301 300 300 299 299 300 300 300 304 301 302 303 305 307 308 311 313 313 315 320 320 323 327 330 335 337 336 334 333 333 332 332 332 332 331 331 330 331 329 329 329 328 327 327 328 328 327 325 324 322 319 317 314 312 311 309 309 308 307 307 307 306 305 304
288 292 289 292 287 293 292 293 288 288 290 290 290 292 294 291 292 290 289 292 290 291 293 292 292 298 300 299 299 300 300 301 300 299 298 301 301 301 299 301 301 301 301 302 301 302 303 306 309 312 317 318 319 322 327 327 329 332 332 332 332 329 330 329 329 329 329 329 328 329 328 329 328 327 326 325 326 327 326 326 325 324 323 321 319 317 313 312 311 310 309 308 307 306 304 303 301
292 292 291 292 289 289 289 289 288 288 289 290 290 294 293 290 291 290 290 293 293 294 295 296 297 298 297 298 298 298 297 296 298 296 297 297 296 298 297 297 299 302 303 301 303 304 305 306 308 313 319 319 320 327 327 328 328 328 328 328 327 325 327 326 327 326 326 327 327 328 329 327 327 326 326 325 325 324 324 325 325 324 322 320 319 317 315 313 312 311 309 308 307 305 303 301 299
292 293 291 290 292 289 289 292 290 289 291 290 294 290 289 289 290 292 295 290 292 294 295 296 297 297 297 298 297 297 297 298 296 297 298 296 296 297 298 298 299 301 302 304 305 307 310 311 312 317 318 320 324 327 326 325 325 324 324 324 323 321 324 324 324 324 324 325 324 325 326 326 325 324 323 323 322 321 321 321 321 320 319 319 318 316 315 313 310 308 306 305 304 302 300 300 299
291 290 290 292 291 289 291 293 291 290 292 290 293 290 291 290 292 292 291 291 292 295 294 294 296 297 296 296 296 296 297 297 298 296 296 296 296 296 297 298 299 301 303 304 307 309 311 312 314 318 319 321 325 324 323 322 322 321 320 321 321 320 320 321 321 322 321 322 322 322 322 323 322 322 322 321 320 320 320 320 319 318 316 315 314 311 310 309 306 305 305 303 302 300 300 299 297
290 290 289 291 288 290 289 290 290 291 294 288 292 291 289 291 290 293 294 292 293 294 293 293 293 295 295 295 296 295 296 295 295 295 298 296 298 297 298 299 300 302 303 306 308 309 311 312 313 316 321 322 321 320 319 318 317 317 317 318 317 317 317 318 318 319 318 319 320 320 320 320 319 319 319 319 319 318 317 316 315 314 312 311 309 308 307 306 304 304 303 303 302 300 298 297 296
291 291 294 289 287 293 291 291 290 291 293 289 290 292 289 289 290 292 290 292 293 292 292 292 293 292 292 293 294 295 296 295 294 295 297 298 296 296 299 300 303 303 305 306 308 309 310 311 312 314 318 318 317 316 316 315 315 314 315 314 315 315 316 316 316 316 317 317 317 317 317 317 317 317 316 316 315 314 313 312 310 309 308 308 307 306 305 304 303 302 302 301 300 299 297 295 295
292 290 289 290 286 287 289 290 289 291 293 288 292 286 287 289 294 291 292 291 291 292 291 292 292 291 291 291 294 294 294 294 295 296 296 296 296 297 299 302 305 305 306 306 308 308 310 311 312 313 314 314 313 313 313 312 312 311 311 311 312 313 313 314 313 314 314 313 313 314 314 314 314 314 314 313 313 311 310 309 308 306 306 306 306 305 304 303 302 301 300 300 299 297 295 293 291
292 289 285 285 285 284 288 288 289 291 290 289 292 287 289 290 288 288 289 291 292 293 293 292 292 291 291 292 293 294 295 294 296 296 295 295 296 296 299 302 304 304 304 305 307 308 308 309 310 311 311 311 311 311 311 310 310 310 309 309 310 310 310 310 310 311 311 310 310 309 310 310 310 311 311 311 310 309 307 306 304 304 303 302 302 302 301 300 300 299 299 297 296 294 293 292 290
285 288 284 279 284 282 285 289 289 291 291 289 292 285 290 294 291 288 289 290 290 293 292 292 291 291 291 291 292 293 295 294 294 294 295 295 296 297 298 302 303 303 303 305 306 307 307 308 309 309 309 309 308 308 308 308 307 306 306 305 305 307 307 307 307 307 307 307 307 307 307 306 307 308 309 309 306 306 304 302 302 301 300 300 298 298 298 298 297 297 297 296 293 292 291 290 289
280 286 282 284 283 282 287 290 287 289 290 291 291 289 286 289 288 287 290 290 290 290 291 290 291 291 291 292 292 293 293 294 293 294 294 295 296 297 298 302 302 302 303 304 305 306 306 307 308 308 307 307 306 305 305 305 305 304 303 304 303 303 302 302 303 303 303 304 305 305 305 305 305 306 306 305 304 303 302 301 299 301 300 297 296 295 296 296 296 296 295 296 294 291 290 289 288
283 282 284 280 284 283 285 286 289 287 290 289 289 287 289 291 288 289 290 290 289 290 292 291 291 292 292 292 292 293 293 294 294 295 294 294 296 297 299 302 303 303 304 304 305 306 305 305 305 306 305 305 304 304 303 303 302 301 300 301 302 301 301 301 301 302 301 302 302 302 303 303 303 303 303 302 300 299 298 297 296 295 295 294 294 293 293 294 295 295 293 292 292 291 289 288 287
278 284 284 285 283 283 286 285 289 289 289 288 288 287 289 292 293 289 289 290 290 291 293 293 292 291 291 292 292 293 293 293 295 295 295 294 295 297 299 301 303 304 304 303 304 305 304 304 303 304 304 303 303 301 301 300 300 300 300 299 299 300 299 300 300 299 299 299 300 300 300 300 300 301 301 300 299 297 297 296 295 294 294 293 293 293 293 293 293 293 292 290 290 290 289 288 288
282 284 283 281 285 283 283 287 287 289 287 286 285 288 290 292 292 293 289 289 290 291 291 291 291 290 291 291 292 293 293 294 294 294 294 294 295 297 299 302 303 304 304 304 304 303 302 303 302 302 302 301 302 301 301 300 300 299 298 299 297 296 297 297 297 299 300 297 297 297 298 298 299 298 298 298 297 295 294 293 293 293 293 293 292 291 291 293 292 292 291 290 289 289 288 288 287
285 283 282 283 283 284 285 285 287 286 288 286 289 288 288 290 292 292 290 288 289 290 290 291 292 292 291 292 292 293 293 294 292 293 293 294 294 297 300 302 302 304 304 303 303 302 302 302 301 300 300 300 300 300 300 300 299 298 299 297 295 296 294 295 294 294 294 294 294 295 295 296 296 296 296 296 294 293 292 291 291 291 291 291 291 290 290 290 291 291 290 290 289 287 285 284 283
288 285 284 285 283 285 288 290 288 288 288 283 284 285 287 289 291 292 290 287 289 290 291 291 292 292 292 292 292 293 293 289 290 291 291 291 294 297 300 301 302 302 302 302 302 302 302 302 301 300 300 301 300 301 300 300 299 300 298 295 294 294 293 292 291 291 292 292 292 292 292 293 294 294 293 293 292 292 290 290 289 289 289 288 288 288 288 289 288 289 289 286 283 285 282 281 282
284 286 284 284 285 284 288 287 286 287 288 287 287 287 289 290 291 292 291 291 293 293 293 295 294 293 293 293 293 292 291 291 291 293 291 292 293 296 299 301 301 301 301 302 302 302 301 301 301 300 300 300 301 300 299 296 295 295 295 294 293 290 291 291 290 290 291 290 290 290 290 291 293 292 291 291 291 290 289 289 288 288 288 288 287 286 286 286 287 288 289 288 284 281 282 282 281
286 283 285 285 283 285 284 285 287 289 288 285 283 286 290 290 290 292 293 293 292 292 293 293 294 294 294 294 293 293 292 292 291 291 292 292 293 296 299 300 300 301 301 302 302 301 301 300 300 300 300 300 299 298 296 294 293 292 291 290 290 290 289 290 290 290 290 290 289 289 289 289 290 290 290 289 289 289 289 288 287 286 285 285 286 285 284 284 284 284 286 287 287 284 279 281 282
283 286 284 284 285 285 287 286 286 286 287 284 286 288 290 291 291 290 292 290 291 293 293 292 292 292 293 292 291 293 293 293 292 291 291 291 292 296 299 300 301 300 301 301 301 301 301 300 300 300 299 298 297 295 293 292 291 290 290 289 289 289 289 289 289 289 288 289 288 288 287 288 289 289 289 288 288 287 287 286 285 284 283 283 284 284 283 282 282 282 283 285 284 286 279 279 281
283 284 288 288 287 287 285 284 287 285 282 284 284 283 280 280 287 290 291 286 288 291 292 293 294 294 290 291 292 292 293 293 293 292 292 292 293 296 300 301 300 300 301 301 300 302 301 300 300 299 298 297 295 293 292 292 292 291 290 289 288 288 287 289 289 288 287 288 286 286 287 287 287 287 287 287 286 286 285 284 283 283 283 283 283 283 282 281 281 281 280 281 281 281 282 279 279
285 285 287 290 288 286 286 285 287 280 281 285 284 283 283 284 287 288 287 286 290 293 292 293 293 293 291 292 292 291 292 291 291 292 292 292 293 296 299 301 301 300 301 301 300 300 301 300 299 298 296 295 294 293 293 293 292 292 293 294 293 291 290 287 287 287 287 286 286 286 285 286 286 286 285 284 284 283 283 283 283 283 282 282 283 282 282 281 281 281 281 281 281 283 281 279 279
283 285 284 286 286 286 286 285 286 283 281 284 283 280 282 286 286 290 291 290 290 292 295 295 294 293 292 292 291 291 291 292 292 292 292 292 293 296 299 301 302 301 300 300 299 298 300 299 298 297 295 294 293 293 293 293 293 294 294 293 292 291 290 286 285 285 286 286 285 285 284 284 284 283 283 282 282 283 283 282 282 282 282 282 283 282 281 280 281 281 281 280 280 280 280 281 278
284 286 284 285 287 285 285 285 282 282 282 282 283 285 284 283 284 285 287 288 289 292 295 296 295 294 292 292 291 291 291 292 292 292 292 292 293 296 299 301 302 301 299 299 298 297 298 298 297 296 295 293 293 293 293 293 294 294 293 291 288 286 285 285 285 286 285 285 284 284 284 283 282 282 281 282 281 282 283 282 282 282 282 281 282 281 280 280 280 280 280 280 280 279 280 279 279
287 285 285 284 283 282 281 281 284 281 279 281 283 285 280 286 283 286 284 287 288 291 295 295 295 293 291 291 290 290 289 290 291 292 292 292 293 295 298 301 301 301 299 298 297 297 296 296 296 295 294 293 292 293 293 293 293 292 291 290 287 286 285 284 285 283 283 284 283 282 282 282 281 281 281 281 281 281 281 281 281 281 281 281 281 280 280 280 280 279 279 279 279 279 278 279 279
287 286 288 285 282 280 279 280 280 281 277 284 284 285 285 284 284 287 287 288 290 293 291 291 290 290 289 289 289 289 289 289 290 290 291 292 293 295 298 300 301 300 297 296 295 295 295 295 294 294 293 293 293 293 293 292 291 291 291 289 286 285 285 284 283 282 282 281 282 282 281 281 280 280 280 281 280 280 281 281 281 281 281 282 281 280 280 280 279 280 279 279 280 279 279 279 279
289 287 283 287 286 279 278 275 276 276 279 283 281 285 286 281 281 283 288 287 287 290 291 291 291 291 290 288 288 288 288 289 289 290 290 291 291 293 297 299 300 299 297 295 294 295 295 294 293 293 292 293 292 292 292 290 290 290 290 288 287 285 284 283 282 281 281 281 281 281 280 280 280 280 280 280 280 280 281 281 281 281 280 280 280 280 280 279 279 279 279 279 278 278 279 279 278
288 287 289 283 275 274 274 270 276 275 279 280 279 283 282 284 289 284 287 291 292 290 291 293 292 292 291 288 287 287 287 288 289 290 290 290 292 293 295 298 299 298 296 295 294 294 294 294 293 292 291 292 291 291 290 288 289 289 288 287 286 285 284 284 283 282 282 282 281 281 280 280 280 280 279 280 280 280 280 280 280 280 280 280 280 280 279 279 279 279 279 278 278 278 278 278 277
287 288 285 281 274 274 273 269 267 271 277 279 281 283 283 282 287 292 295 297 296 293 292 292 292 293 294 290 287 286 287 289 289 289 290 290 292 293 295 298 298 298 297 296 294 293 293 294 293 292 291 292 291 290 289 287 287 287 288 287 286 285 284 283 283 282 282 282 282 281 281 281 281 281 280 280 280 280 280 280 280 279 280 279 279 279 279 279 279 279 278 278 278 277 278 277 277
290 287 290 285 280 275 272 273 276 278 275 276 278 278 277 278 284 287 291 291 288 287 287 287 287 289 287 285 284 285 286 287 288 289 290 290 292 293 294 297 297 298 297 296 294 293 292 292 292 292 291 291 290 289 288 288 287 287 287 286 285 284 284 283 283 283 282 281 281 281 281 281 281 280 280 280 280 280 279 279 279 279 279 279 279 279 279 279 279 279 278 278 277 277 277 277 277
285 285 285 280 285 282 281 274 272 270 271 272 273 280 280 284 285 287 287 287 289 287 285 285 287 286 284 284 286 287 287 288 288 288 289 290 291 292 293 295 296 297 297 296 294 293 292 292 292 292 291 290 290 289 288 287 286 285 285 284 284 283 283 283 282 282 282 282 281 281 281 280 280 280 280 280 279 279 279 279 279 279 279 279 279 279 279 278 278 278 278 277 277 278 277 277 276
285 286 284 285 284 287 276 274 275 273 272 280 275 280 283 284 289 292 294 292 292 289 289 288 289 288 284 286 286 286 287 287 288 288 289 289 290 291 293 294 295 295 296 295 294 293 292 292 291 292 291 290 289 288 287 286 285 284 283 283 283 282 282 282 282 281 281 281 281 280 281 280 280 280 280 280 279 279 279 279 279 279 279 279 278 278 278 278 278 278 278 277 277 277 277 276 276
286 282 285 286 285 286 283 278 272 270 274 278 277 280 282 279 284 282 286 286 290 290 292 291 288 286 285 288 287 287 287 287 288 288 288 289 290 291 292 293 294 295 295 295 294 293 292 291 291 292 290 288 287 287 285 284 283 283 282 282 282 282 282 282 282 281 281 281 280 280 279 279 279 280 280 280 279 279 279 279 278 278 278 278 278 278 278 278 278 277 277 277 277 277 276 276 276
287 284 287 289 282 280 280 276 277 271 274 276 275 276 280 284 286 285 286 285 288 290 287 285 288 285 286 287 286 285 285 285 287 287 287 288 289 290 291 292 293 294 293 293 294 293 292 290 290 291 290 289 288 287 284 283 283 283 283 282 282 281 281 281 281 281 281 280 280 279 279 279 279 279 280 279 278 278 278 278 278 278 278 277 277 277 277 277 277 277 276 276 276 276 276 275 275
287 288 288 285 284 276 278 283 275 277 272 268 278 273 283 285 285 287 291 290 290 290 289 289 289 287 286 286 286 286 285 286 287 287 288 288 289 290 291 291 291 292 291 291 292 292 292 291 289 289 289 288 286 285 284 283 283 283 282 281 281 281 281 281 281 280 280 280 280 279 279 279 279 279 279 278 278 278 278 277 277 277 277 277 276 276 276 276 276 276 276 275 275 275 275 275 275
285 285 284 286 283 283 281 279 278 278 268 268 271 279 285 283 287 288 292 292 292 291 292 292 291 287 285 286 287 286 286 286 287 287 287 288 288 289 289 290 290 289 289 289 290 290 291 290 289 288 287 285 285 285 284 283 282 282 282 281 281 281 280 280 280 280 280 279 279 279 279 279 279 279 278 278 278 278 277 277 277 277 277 276 276 276 275 276 276 275 275 275 275 275 275 274 274
290 290 287 289 284 281 278 279 280 272 276 279 269 280 287 285 284 291 290 292 291 290 292 291 289 287 285 286 286 286 286 286 286 287 287 287 287 288 287 287 287 287 287 287 288 289 289 289 289 288 287 285 285 284 284 283 282 282 282 281 281 281 280 280 280 280 279 279 279 279 279 278 278 278 278 278 278 278 277 277 277 277 276 276 276 275 275 275 275 275 274 274 274 274 274 274 274
Wind_Speed
6 5 3 1 3 2 3 7 1 2 4 0 1 1 1 1 1 2 1 2 0 1 0 1 1 1 0 2 4 4 1 3 2 5 2 1 2 4 2 2 2 5 7 5 4 4 3 1 0 1 5 8 8 8 8 8 9 10 10 9 10 12 11 12 12 12 13 13 13 13 14 14 14 14 15 15 15 15 15 15 15 16 17 17 17 17 18 18 17 17 16 16 16 15 15 15 15
2 4 3 2 1 2 0 2 4 3 6 2 2 1 2 1 0 2 1 2 2 1 1 4 5 7 7 9 6 2 3 1 4 0 2 3 4 1 3 3 1 8 6 5 4 4 3 2 3 2 6 8 8 8 8 8 8 9 9 9 10 11 11 11 11 12 13 13 13 13 13 13 14 14 15 15 13 14 15 15 16 16 16 16 17 17 17 18 17 17 17 17 16 16 15 15 15
3 5 1 4 3 5 2 4 1 1 4 0 2 5 2 0 1 2 4 3 4 4 0 1 3 3 2 1 2 2 1 0 0 0 0 3 0 2 5 4 1 3 8 5 4 4 2 3 4 3 7 7 8 8 8 8 8 8 8 9 8 11 11 11 11 11 12 12 12 12 12 13 13 14 14 14 15 15 16 16 15 15 16 16 16 17 17 17 18 17 17 17 17 16 16 16 15
2 5 2 3 0 3 1 4 4 7 2 4 1 2 1 1 3 4 2 3 3 0 1 1 2 1 1 4 0 0 1 1 0 0 1 1 0 3 5 5 2 4 5 6 4 4 3 4 4 5 6 7 8 8 7 7 7 7 7 8 7 8 9 10 10 11 11 11 11 11 12 12 13 14 13 14 15 16 16 15 15 15 15 16 16 17 17 17 17 18 17 17 18 17 17 16 15
4 2 2 4 4 1 4 1 4 3 1 5 3 3 3 4 4 3 2 3 4 1 1 0 2 2 0 3 0 1 1 0 0 1 1 2 2 3 4 4 2 6 5 6 6 5 5 9 7 4 6 8 9 9 8 7 7 6 5 6 7 7 9 9 10 10 10 10 11 11 11 12 13 13 14 15 15 16 15 14 15 15 15 15 16 17 17 17 18 18 18 18 18 18 17 16 16
5 2 4 2 1 2 5 2 2 1 3 5 1 3 4 6 4 4 3 2 1 2 2 0 1 3 1 1 2 0 1 1 1 1 0 1 4 4 4 3 3 5 5 6 5 5 4 9 7 6 8 10 11 10 9 8 8 6 6 7 7 7 7 8 9 9 9 10 11 11 12 12 13 13 14 15 15 15 14 14 14 14 15 15 16 16 17 17 17 18 18 18 18 18 17 17 18
1 4 5 4 3 4 3 3 3 2 1 5 1 1 5 4 4 2 1 0 0 2 2 0 1 2 3 1 1 1 1 0 1 1 2 4 5 4 4 3 4 5 5 5 5 5 5 11 11 9 6 7 10 12 11 9 9 8 8 7 7 7 7 8 9 9 9 9 10 11 12 12 12 13 13 14 14 14 13 13 14 14 15 15 16 17 17 17 17 18 18 18 18 18 18 18 19
2 1 2 3 1 4 3 1 1 3 1 5 1 2 3 4 3 1 2 1 1 1 1 1 1 2 0 2 1 0 1 2 1 1 3 3 4 3 1 4 7 4 5 5 6 4 8 14 11 9 6 10 11 11 11 11 10 9 8 9 8 7 8 8 8 8 8 9 10 10 11 12 12 12 12 14 13 13 13 13 13 14 15 15 16 17 17 17 17 18 18 18 18 18 18 18 20
5 7 0 6 3 3 3 2 1 2 5 1 4 6 2 2 5 3 1 1 0 0 1 1 0 1 2 1 1 1 1 1 2 3 2 2 2 3 2 4 7 4 3 5 5 6 5 8 11 11 6 9 10 12 11 11 10 10 9 9 8 8 8 8 8 7 8 9 10 11 11 11 11 12 13 12 13 13 13 13 14 14 15 15 16 17 17 17 17 18 18 19 18 18 19 19 19
2 1 1 2 3 2 2 1 2 2 1 2 1 0 1 2 2 0 2 1 1 1 1 1 1 1 1 1 1 1 1 2 3 1 3 3 3 3 3 2 5 8 3 5 3 4 4 4 10 17 14 9 8 10 12 11 11 11 11 10 9 9 9 8 7 8 8 9 9 10 10 10 11 13 12 12 13 13 13 13 14 14 15 16 16 17 17 17 17 18 19 19 18 19 20 19 19
0 6 3 4 5 2 2 2 3 2 1 4 4 5 3 3 3 1 0 0 1 1 0 2 1 2 1 1 2 2 3 2 3 1 3 4 3 5 3 2 3 5 5 5 3 3 4 6 5 12 9 7 7 7 7 10 11 11 10 10 8 8 8 8 8 8 8 9 9 9 10 10 10 12 12 12 13 13 13 13 14 14 15 16 17 17 17 17 17 18 19 19 18 18 19 19 19
1 1 2 4 2 7 5 5 1 3 5 2 1 0 2 5 1 0 1 4 1 0 2 3 1 5 1 2 1 0 4 3 1 1 2 2 5 4 4 4 5 4 2 6 4 3 3 3 2 4 5 5 5 8 3 5 10 9 9 10 9 9 8 9 8 8 8 8 9 9 9 10 11 11 11 12 12 13 13 13 14 15 15 16 17 17 17 17 18 18 18 18 18 18 18 19 19
3 1 6 5 1 0 1 3 2 1 2 3 3 0 3 5 4 5 4 1 0 3 1 3 0 0 1 2 2 3 1 1 1 1 3 4 4 4 5 5 7 7 7 4 4 2 3 3 4 4 5 4 5 8 3 2 5 7 8 9 9 9 8 9 9 8 8 8 8 7 8 9 11 11 11 12 12 13 13 13 14 15 16 16 17 18 18 18 18 18 18 18 18 18 19 19 19
5 5 6 2 1 3 4 2 1 3 3 3 2 0 1 2 3 5 6 3 2 2 0 1 1 2 0 2 2 2 3 1 1 3 3 3 5 5 6 4 7 7 7 8 7 6 5 6 2 2 5 5 2 9 3 1 4 5 7 8 8 8 9 8 7 7 7 7 7 8 8 9 11 10 10 12 12 11 12 13 14 15 16 17 17 17 17 18 18 18 18 18 18 19 19 19 19
2 2 7 5 1 1 1 5 8 5 5 3 2 2 1 2 2 3 6 5 4 1 3 0 1 1 3 5 4 4 3 1 3 2 4 4 7 6 5 5 6 6 7 8 5 7 5 6 5 5 4 2 6 5 4 2 2 3 7 7 8 9 8 8 7 6 7 8 8 8 8 9 10 10 10 11 11 11 11 11 12 13 15 16 17 17 17 17 18 18 19 19 19 19 19 19 19
5 6 5 3 2 4 3 1 1 3 5 4 1 1 2 1 1 4 3 1 1 1 0 2 2 1 0 4 1 2 1 2 2 3 5 6 5 4 5 5 5 5 6 6 4 4 3 5 5 5 4 4 1 4 5 1 1 3 5 6 9 8 9 8 8 7 8 8 9 9 9 8 8 8 11 10 11 10 10 9 11 13 15 15 16 16 17 17 17 18 19 19 19 19 19 18 18
2 4 3 4 2 3 3 3 5 3 3 3 3 1 3 1 0 0 0 1 4 0 3 0 1 0 2 2 1 3 3 2 3 5 5 4 3 4 3 4 2 3 3 4 3 2 3 5 5 5 5 5 5 0 6 6 2 4 4 6 7 9 9 9 9 9 8 7 7 8 8 7 6 6 7 7 9 8 10 11 11 12 14 14 15 16 17 17 17 17 18 18 18 17 16 17 17
2 2 6 1 2 3 5 7 9 2 2 4 3 3 3 2 0 1 0 5 2 1 0 3 1 1 2 2 1 2 1 4 4 7 4 3 1 3 3 2 2 3 3 2 3 3 4 5 6 6 4 4 3 2 4 6 4 4 3 3 4 6 8 8 6 6 6 4 6 6 5 6 5 5 5 6 5 7 9 12 11 11 13 14 14 16 17 17 17 17 17 17 17 16 14 9 9
4 2 2 6 5 4 7 4 6 2 1 2 3 0 2 3 5 1 1 1 1 0 1 2 3 3 0 0 2 3 4 4 4 5 6 5 4 5 4 1 2 2 3 5 5 6 5 5 4 4 3 3 3 4 3 6 6 4 4 3 4 3 6 7 6 6 4 3 3 4 5 4 4 5 5 6 6 7 9 12 10 12 13 14 13 14 15 16 17 16 16 16 15 14 9 8 8
1 3 1 2 8 2 5 5 5 3 3 3 4 0 1 0 2 1 2 1 1 4 4 2 3 5 5 1 0 2 4 4 4 6 6 4 3 4 3 2 1 1 1 2 4 3 3 4 3 3 4 4 4 3 2 5 4 4 3 4 3 3 5 5 5 6 4 4 3 3 3 4 4 4 5 9 8 5 6 11 12 12 13 13 14 10 12 13 15 15 14 13 9 7 7 7 7
1 2 3 2 4 1 2 6 5 4 1 2 2 1 0 1 3 1 2 1 4 6 7 8 11 9 8 5 3 2 5 5 4 4 6 4 2 1 2 2 2 1 2 3 1 3 3 3 3 3 4 3 3 2 3 2 4 4 4 4 5 3 3 4 5 5 6 4 4 4 4 4 3 4 4 4 5 5 5 6 6 5 6 7 10 7 6 7 7 7 7 7 6 7 8 7 7
3 0 1 1 2 0 1 5 3 3 2 4 2 5 4 1 0 1 6 6 8 7 6 9 6 5 9 10 6 3 5 5 5 5 6 6 6 5 2 0 1 1 2 2 3 4 5 5 2 2 3 2 2 2 2 1 2 4 4 5 5 4 4 5 4 4 5 5 4 4 4 4 4 4 3 4 4 5 5 5 5 5 6 6 6 7 6 6 6 6 7 7 6 7 8 8 8
0 1 0 3 1 0 1 1 3 5 3 4 4 3 3 2 1 1 5 9 4 2 3 4 4 5 6 4 6 6 6 7 7 7 6 5 4 3 3 2 2 0 1 1 2 3 3 4 6 4 2 3 3 3 1 1 1 2 3 4 6 5 4 5 4 4 5 5 4 4 4 3 2 2 3 3 3 3 6 5 6 4 7 6 5 7 7 6 6 6 7 6 6 8 9 9 9
4 1 0 1 2 1 1 0 4 1 8 4 3 1 1 2 5 1 3 8 3 3 2 4 3 3 7 9 7 8 8 8 7 4 4 5 5 6 5 4 2 1 0 1 2 3 3 4 3 3 4 2 2 2 3 2 1 2 3 5 4 4 5 4 4 4 5 6 5 4 4 4 4 3 3 3 3 5 3 5 5 5 6 6 5 6 8 6 6 6 7 7 7 7 9 9 9
1 1 1 0 1 3 3 0 2 0 1 1 2 1 2 4 2 1 7 9 2 2 2 4 5 6 5 6 7 6 5 4 5 3 1 1 1 1 1 1 1 1 1 1 2 3 3 3 2 2 3 4 3 1 3 2 3 3 2 5 4 5 4 4 6 5 2 5 5 5 5 5 4 4 4 4 5 5 6 4 4 5 6 6 6 6 6 7 6 6 7 7 6 7 8 9 9
0 0 1 0 0 4 1 0 0 0 0 1 1 4 3 2 2 5 13 5 1 2 4 4 5 6 6 6 6 6 6 6 4 4 5 2 1 2 2 2 1 1 1 1 2 3 3 3 3 2 4 4 4 3 3 3 3 5 3 5 5 5 5 5 4 4 3 4 6 5 5 5 5 6 6 5 6 6 6 6 5 5 6 6 7 7 5 6 6 6 7 7 7 8 8 8 9
1 1 1 1 1 3 2 1 1 0 1 0 3 3 1 3 2 9 1 2 4 4 4 1 5 7 6 5 5 5 7 8 8 3 2 1 2 3 3 1 1 1 0 1 1 2 3 3 2 3 5 5 3 4 5 4 5 6 3 3 5 6 5 4 5 4 3 5 5 5 6 5 6 6 6 6 6 6 7 7 7 6 6 4 6 7 6 5 6 6 7 7 6 7 8 8 9
3 1 1 1 7 2 2 2 3 0 2 4 4 3 0 1 2 12 3 3 4 6 4 4 4 5 5 4 5 4 4 3 3 4 8 6 7 5 4 3 2 1 1 2 2 2 3 3 2 2 4 3 4 5 7 4 6 6 3 3 6 5 5 4 6 4 6 5 4 5 5 6 6 5 6 6 7 6 6 6 6 7 7 5 6 7 8 7 7 7 8 7 7 8 9 8 7
0 0 1 3 6 3 0 3 2 2 3 4 4 1 4 2 8 6 0 2 1 4 5 4 5 5 4 4 4 4 5 4 3 5 6 4 3 3 4 3 2 2 2 2 2 3 2 3 2 1 3 3 5 5 8 4 5 6 4 5 6 6 5 5 5 5 6 5 5 5 5 6 6 7 5 6 7 7 7 7 7 7 7 6 6 8 9 8 7 8 8 7 8 9 10 9 8
0 5 1 4 6 5 3 0 1 4 1 4 2 5 8 8 15 1 0 5 3 2 5 5 5 4 4 4 5 4 4 3 6 7 4 4 4 4 4 3 3 3 2 2 2 3 2 2 1 2 3 5 5 5 6 6 1 7 5 5 4 7 5 6 4 4 6 6 6 7 6 5 7 6 8 7 7 7 7 7 7 6 6 7 7 6 8 6 7 8 8 8 7 8 9 8 9
1 1 4 0 2 4 2 0 0 4 0 2 1 4 9 7 8 5 2 5 8 7 8 6 6 5 5 5 5 6 6 5 6 5 4 4 4 4 4 4 4 3 1 2 3 1 0 1 1 3 4 5 5 6 6 6 2 5 7 5 4 7 6 5 4 5 5 6 6 6 6 6 6 7 7 8 7 7 7 7 6 6 5 5 7 5 7 6 6 7 7 10 8 8 8 7 9
2 1 3 3 3 5 8 3 5 4 1 0 2 3 11 12 7 4 1 4 5 8 7 7 7 6 6 5 6 6 7 5 6 5 5 5 4 5 4 4 3 3 3 3 2 1 2 3 3 5 5 6 6 6 6 7 5 4 7 6 4 6 7 5 4 5 4 5 6 6 6 6 5 8 7 6 8 7 7 7 5 6 6 7 7 6 6 8 7 7 6 9 11 8 10 9 7
5 2 4 1 1 5 8 0 2 3 2 1 6 7 5 6 3 3 1 4 4 6 7 6 8 8 7 7 6 5 5 7 6 7 6 6 5 4 4 4 4 4 2 4 4 3 3 4 4 5 6 6 8 7 7 7 5 6 7 8 4 7 7 4 4 5 4 5 6 7 6 6 6 8 7 5 8 8 7 7 5 6 5 7 7 6 7 5 7 8 6 5 10 9 10 9 7
3 2 3 3 2 2 2 5 0 1 1 4 2 3 9 6 2 1 1 4 5 7 11 9 9 8 8 5 6 8 8 8 11 9 8 6 5 5 4 4 4 4 3 3 3 4 5 5 4 5 6 5 6 6 8 7 5 7 7 6 7 7 7 4 4 5 5 4 5 7 7 6 7 8 7 6 7 7 7 7 6 6 6 6 7 7 6 6 5 8 10 6 6 10 9 9 8
3 2 0 5 1 3 5 1 1 2 1 2 1 5 13 14 10 5 4 5 6 11 12 10 8 7 6 8 8 11 10 11 13 7 7 7 6 5 4 3 4 4 3 4 4 3 4 5 5 6 6 5 7 5 9 8 6 8 7 7 8 7 6 6 6 5 3 4 4 6 8 7 7 7 7 6 8 8 7 7 7 6 5 7 8 8 8 7 7 7 11 9 7 7 8 7 8
2 7 5 3 3 3 3 7 3 4 2 4 5 9 12 13 13 11 4 5 8 12 7 8 8 7 7 10 11 11 11 13 5 5 6 6 6 6 4 4 4 4 5 5 5 5 5 6 4 5 5 5 8 4 7 7 5 6 9 7 8 5 4 7 7 5 3 5 4 5 8 7 6 7 7 7 7 7 7 6 7 5 5 7 9 9 7 8 11 12 10 12 11 9 7 6 6
4 3 2 4 3 5 5 4 5 1 0 8 10 10 8 11 12 11 5 3 6 9 12 12 11 10 10 11 13 13 11 13 4 7 7 7 8 6 5 5 5 5 6 6 7 6 6 7 7 6 5 5 8 6 5 8 8 7 6 4 7 4 3 6 6 4 4 3 6 6 7 7 7 7 6 7 7 7 7 6 7 6 5 7 8 8 8 8 7 10 9 8 12 11 5 3 3
1 1 1 5 2 7 5 1 2 1 3 3 3 4 9 13 13 12 4 3 11 13 14 15 16 13 12 13 14 13 10 2 5 5 6 5 6 6 5 6 6 8 6 7 8 8 7 7 7 7 6 4 3 5 6 4 2 1 8 5 6 4 3 6 5 3 4 4 5 7 6 6 7 7 6 5 7 7 8 7 6 7 7 8 8 8 8 8 9 9 10 8 3 6 4 1 2
2 3 2 2 7 5 9 4 3 1 2 9 6 10 12 11 12 12 11 12 11 11 14 17 15 13 12 12 13 9 5 7 6 8 6 7 7 8 7 7 7 7 7 9 7 8 8 7 7 8 6 6 5 4 4 4 4 4 6 6 4 6 5 3 5 5 4 4 6 7 6 6 6 6 5 5 6 6 7 8 7 7 7 9 10 8 8 8 7 9 8 12 7 3 4 3 4
3 1 1 8 3 2 7 1 3 0 4 3 3 10 13 8 10 15 16 14 9 9 13 15 12 13 14 15 11 9 11 9 11 11 12 9 9 8 8 8 8 7 7 8 8 9 8 7 7 8 7 5 6 5 6 6 7 9 9 8 6 4 6 4 6 7 5 7 8 6 6 5 5 6 5 5 5 6 6 9 7 7 7 5 10 10 7 7 6 6 6 7 11 7 2 4 5
3 5 5 4 3 6 6 5 4 1 1 2 5 9 12 8 11 7 8 4 6 15 14 13 13 12 11 4 5 11 14 13 11 10 10 10 11 12 12 10 8 9 9 9 8 9 7 8 9 8 8 7 5 6 8 7 10 8 8 10 8 9 6 4 7 6 3 4 6 6 5 4 4 6 5 5 6 7 6 7 8 7 7 5 6 8 7 6 5 4 5 7 4 9 5 2 6
3 6 10 9 6 6 4 3 5 8 5 3 3 7 5 3 6 9 7 4 4 7 9 15 17 12 5 9 13 7 8 9 13 15 15 14 13 10 11 12 11 9 10 9 8 9 8 8 8 7 7 7 8 8 9 8 8 12 10 9 8 5 6 6 6 9 6 5 6 3 5 5 4 5 5 6 6 5 7 6 6 7 7 6 6 7 7 6 5 6 3 5 6 3 8 6 4
2 6 9 11 7 3 1 3 2 3 3 2 2 1 12 3 5 6 6 4 11 10 7 13 10 9 6 10 10 8 10 7 6 7 8 11 12 12 13 13 13 11 9 8 8 7 9 9 9 9 8 7 7 9 9 7 7 7 11 12 13 13 11 2 4 4 5 4 5 5 5 5 5 6 5 5 5 5 6 6 7 7 7 7 5 7 7 6 5 5 4 6 6 7 6 7 7
4 2 3 4 3 5 6 3 5 6 1 4 2 2 5 18 4 7 8 7 8 9 15 14 10 9 9 8 7 8 9 10 11 12 13 13 13 15 17 15 12 11 8 9 9 7 10 10 9 9 7 8 8 9 9 8 9 8 6 5 4 6 8 10 8 7 5 5 6 6 5 6 6 4 5 5 5 5 6 7 7 7 8 6 7 7 8 6 7 5 6 6 6 5 4 10 5
3 0 6 5 5 5 2 3 3 1 3 9 1 0 3 9 2 3 2 1 6 12 17 14 9 8 7 8 9 9 10 11 11 12 14 15 16 14 11 12 10 9 9 10 9 8 8 9 9 8 9 9 8 10 9 8 6 6 6 7 7 4 7 7 6 6 7 5 8 5 6 6 5 4 3 5 4 5 6 7 7 7 8 6 7 7 6 6 7 8 7 7 7 6 5 5 7
2 5 7 6 7 6 3 3 3 1 2 9 6 5 3 19 3 3 4 1 6 12 14 11 9 8 6 7 7 7 5 6 8 10 10 12 11 10 9 8 9 10 8 7 8 8 8 8 10 10 9 8 9 9 8 7 5 6 7 7 10 9 6 7 5 7 6 6 7 7 6 6 5 5 4 4 5 4 6 6 7 7 8 7 7 7 7 8 7 8 6 7 7 8 5 6 7
7 4 7 5 7 3 3 6 2 2 5 9 11 10 6 13 1 8 8 8 9 9 6 6 6 6 6 6 5 4 5 6 7 6 6 8 7 8 9 12 11 9 8 8 9 9 9 9 10 11 10 8 9 9 9 9 7 6 8 9 12 14 10 11 10 6 5 4 8 7 6 6 5 5 5 4 4 5 6 5 7 7 6 7 8 7 7 8 7 7 7 7 7 9 7 8 8
5 2 3 3 2 6 3 4 4 1 9 1 3 9 8 12 4 5 6 4 5 7 7 7 7 7 6 5 4 4 5 5 6 7 7 8 7 7 9 11 12 12 10 10 9 9 10 10 10 10 10 10 10 9 9 8 7 7 7 9 11 14 15 11 13 13 10 9 8 9 6 6 5 5 4 5 5 4 6 6 6 7 7 7 7 6 7 7 7 7 7 7 7 7 7 8 7
3 5 6 6 4 5 3 3 2 5 9 0 2 3 4 18 11 3 8 11 9 8 10 10 9 9 7 4 5 4 4 5 7 8 8 10 12 13 13 13 13 13 13 13 12 10 9 10 11 11 11 10 11 10 10 8 8 8 9 9 8 9 12 13 12 12 10 10 9 10 9 8 7 7 6 7 5 6 7 8 7 8 7 6 7 7 7 7 7 7 8 8 7 7 7 8 8
5 8 7 6 0 2 5 4 2 7 7 3 1 1 9 3 8 12 19 22 11 8 11 10 9 11 10 5 4 4 5 7 8 9 10 11 12 13 13 14 14 12 13 13 12 10 9 9 11 12 12 11 10 10 9 8 8 8 8 8 9 9 9 10 10 12 10 9 8 10 10 10 10 9 9 8 8 6 5 6 7 7 7 7 7 8 7 6 7 8 8 8 8 7 7 9 9
10 3 10 9 9 7 3 5 6 8 5 2 5 2 8 3 5 2 10 8 5 6 6 5 7 9 6 4 3 4 5 5 6 9 11 12 13 13 13 13 13 13 13 12 10 10 9 9 10 12 12 11 11 11 9 10 8 7 7 7 7 7 9 9 8 9 11 10 8 9 8 7 8 8 8 7 6 7 6 7 7 8 7 7 7 8 7 7 7 8 7 8 7 6 8 9 8
2 2 5 3 8 6 6 4 3 2 3 4 2 7 4 6 3 5 5 7 11 6 5 5 10 7 4 4 5 6 6 7 7 8 9 9 10 11 10 11 12 12 13 11 12 11 10 10 10 11 13 12 12 11 10 10 8 7 7 8 8 7 6 7 7 6 7 8 8 9 9 7 6 7 6 7 5 6 7 7 6 7 6 7 7 8 8 8 8 9 8 8 8 5 9 9 8
4 6 7 5 2 4 2 2 1 1 2 12 4 9 7 8 11 13 16 10 14 5 7 7 11 8 4 7 5 6 7 7 8 10 10 10 9 10 11 11 11 11 12 13 14 13 13 11 11 11 11 10 11 11 10 9 8 8 8 7 7 7 8 10 10 10 9 8 7 6 7 6 6 6 7 5 7 5 6 6 6 6 5 6 6 6 7 7 7 8 8 9 9 7 8 9 7
9 4 7 2 2 3 3 6 2 2 4 8 4 9 8 3 15 3 1 5 13 9 13 9 8 4 6 10 8 8 8 8 8 7 6 8 10 11 11 10 12 13 14 13 13 11 10 10 11 12 11 12 10 9 9 9 9 8 7 8 7 8 9 8 8 10 8 9 7 6 5 7 7 6 6 6 6 6 5 5 6 5 4 4 5 5 6 6 6 6 7 7 7 8 9 6 6
6 4 5 7 4 3 2 4 5 1 5 7 4 2 9 10 12 1 1 4 8 11 7 3 8 4 8 7 8 6 5 4 7 8 8 9 10 11 12 12 11 10 11 10 10 10 9 8 8 10 12 12 12 9 7 6 7 7 8 9 10 8 6 7 6 7 7 9 9 7 7 6 6 6 7 7 7 6 6 5 5 5 4 4 3 4 4 5 5 7 5 6 5 6 8 8 6
1 3 4 1 2 1 5 8 3 5 5 1 9 4 15 8 8 9 11 12 11 7 3 6 8 5 5 6 6 6 7 7 7 7 8 9 10 11 12 13 13 12 10 9 10 9 10 9 9 8 7 8 9 10 10 10 9 8 7 6 6 7 7 7 8 9 9 9 8 8 8 7 7 6 6 6 6 6 6 6 5 6 6 4 4 3 4 5 5 5 6 6 5 5 7 8 6
1 2 4 1 0 2 4 1 4 3 4 3 3 11 14 5 8 10 12 11 10 8 8 8 7 3 5 6 6 5 6 6 7 7 8 9 9 9 9 9 8 6 6 7 9 11 11 9 10 10 12 10 10 11 11 10 9 8 9 10 10 8 8 7 7 7 7 7 7 6 6 6 6 6 6 7 6 6 6 5 6 6 7 6 5 4 3 5 5 6 5 6 6 6 7 5 6
15 17 16 17 12 6 4 8 2 3 2 6 4 14 18 4 3 10 10 11 8 6 9 9 6 4 5 6 6 5 5 6 7 7 7 7 7 7 6 6 5 7 8 9 8 9 10 11 11 11 10 11 12 11 10 9 8 8 9 9 8 7 7 7 8 8 7 7 7 7 6 6 6 6 6 7 7 6 5 6 6 6 6 6 5 5 4 4 6 7 6 4 6 6 6 6 6
Wind_Direction
341 340 334 2 58 99 54 2 97 337 59 290 8 23 197 352 212 10 217 341 342 283 214 48 144 73 190 207 157 143 204 108 207 133 213 238 287 298 307 312 273 170 143 152 140 137 115 126 70 306 160 129 118 114 107 103 100 101 98 96 100 94 96 99 99 99 100 102 102 103 102 99 95 88 81 77 75 70 65 59 54 50 48 46 48 51 53 53 52 51 50 48 47 48 53 56 60
341 331 27 9 39 48 342 121 97 354 37 56 226 88 244 278 38 222 199 196 210 111 196 115 97 89 66 82 109 135 36 7 170 158 280 237 315 342 357 17 228 152 151 148 147 131 152 165 181 229 163 134 126 125 119 110 105 100 99 99 100 98 100 99 100 99 99 100 103 103 103 103 98 93 88 86 83 73 65 58 54 51 49 47 48 50 52 53 52 51 50 50 49 52 56 58 63
1 9 356 24 33 72 93 32 292 40 88 157 274 206 325 114 209 245 223 213 179 171 136 186 103 65 30 88 25 68 169 5 20 288 213 335 72 296 345 348 206 181 149 146 144 136 139 170 177 204 156 140 130 125 121 113 108 102 101 98 104 111 101 101 100 101 100 101 102 102 101 99 96 92 91 88 78 71 63 57 54 52 50 48 49 51 53 54 54 53 52 53 53 56 60 60 64
80 26 123 65 124 30 55 29 86 123 122 202 305 275 185 182 236 210 243 239 181 79 315 3 57 264 92 52 177 83 39 66 200 151 30 16 166 271 316 325 273 149 149 151 145 144 146 171 174 204 164 145 130 125 122 120 113 112 106 108 108 108 110 101 98 98 99 100 99 98 100 98 96 93 88 82 78 70 64 59 54 50 50 52 52 52 55 55 56 55 56 56 57 59 60 62 68
64 3 73 100 107 8 100 116 136 103 104 203 167 270 253 212 193 219 273 261 274 225 323 246 82 351 142 121 354 125 204 282 345 175 250 266 276 276 291 296 187 156 166 152 147 156 158 165 182 199 161 149 138 135 132 131 125 117 101 102 110 110 107 106 95 93 96 98 98 100 101 101 99 94 89 83 77 72 69 63 57 53 51 53 55 55 55 57 57 58 58 59 59 58 60 67 71
62 45 0 77 52 157 67 67 51 151 218 152 119 228 221 213 185 206 262 314 285 182 193 13 169 190 25 310 172 90 209 66 226 286 178 251 310 315 282 282 152 171 150 152 151 152 164 172 158 185 162 165 146 143 141 144 137 110 108 112 114 113 105 104 98 93 94 96 97 97 99 94 92 89 84 81 77 74 69 65 60 58 57 57 57 58 58 58 59 61 60 59 59 61 64 69 71
268 49 0 38 30 45 175 124 175 186 250 158 206 245 207 210 219 121 278 12 253 86 168 227 97 102 67 291 15 227 211 152 67 220 178 284 305 307 280 208 149 170 147 160 143 132 151 173 169 189 176 153 152 146 150 148 139 128 126 122 114 110 101 100 100 95 94 95 96 97 96 98 97 92 88 83 80 77 71 66 63 61 61 61 62 61 61 61 63 63 63 61 61 63 67 69 68
56 115 327 103 310 48 44 172 161 166 335 184 238 234 235 204 162 126 231 124 221 170 33 181 358 113 243 92 154 262 341 183 236 266 268 287 290 306 315 182 154 169 146 167 132 156 182 166 185 144 147 173 163 152 151 149 144 138 134 129 124 120 118 109 103 96 97 100 100 102 104 103 99 102 94 93 88 82 74 69 65 63 63 64 65 65 64 65 65 65 66 65 65 66 68 69 68
1 88 324 68 57 30 61 72 254 235 286 289 283 217 250 182 153 126 238 251 9 299 154 222 284 81 228 58 194 247 294 265 279 254 278 297 346 327 132 177 157 156 145 136 134 168 157 168 147 139 188 181 169 153 151 152 147 144 138 132 134 130 118 111 109 104 109 109 109 109 110 108 108 101 99 95 91 85 78 71 67 65 64 65 66 66 67 68 68 69 68 68 68 69 70 72 69
45 58 244 110 136 45 30 299 95 187 237 238 240 238 157 154 144 156 200 83 187 130 228 315 171 84 115 169 319 6 118 329 296 68 7 341 349 28 83 175 163 155 141 135 146 145 145 200 149 160 199 167 182 152 154 159 152 147 142 141 140 134 130 123 118 120 115 112 108 110 111 114 113 109 107 102 94 87 79 73 69 67 67 66 66 67 69 69 69 71 71 70 69 70 71 68 67
340 21 132 76 34 103 165 219 267 313 254 316 301 234 219 140 131 184 163 190 329 165 275 198 28 148 101 243 208 245 322 315 89 97 332 330 24 40 42 106 163 150 150 141 152 140 152 186 179 163 196 176 159 133 163 158 154 150 146 142 140 132 135 126 122 120 120 117 115 115 117 117 113 112 105 100 95 89 81 77 73 70 69 68 68 68 69 68 68 69 70 69 68 69 69 68 66
7 30 11 100 150 153 221 162 238 267 303 339 242 314 181 136 108 155 172 138 224 227 156 137 263 144 93 335 295 283 322 71 72 327 319 351 54 36 30 40 65 61 99 155 146 136 144 144 148 168 163 157 126 133 119 183 154 152 150 144 138 132 135 131 126 125 125 122 121 121 121 122 113 107 111 105 96 88 83 80 77 74 72 71 70 70 70 68 67 67 68 69 69 70 70 68 67
111 89 85 82 189 115 181 114 206 312 348 273 187 43 123 115 186 199 184 150 58 124 291 211 210 54 243 190 249 317 113 153 5 66 35 57 61 57 50 51 61 52 38 47 103 120 164 156 165 171 159 127 128 100 79 196 137 155 151 141 139 136 132 134 134 136 129 127 127 122 115 111 111 119 114 104 97 91 87 83 81 77 74 72 72 72 71 70 69 69 68 69 71 71 71 69 67
116 175 122 151 46 121 133 178 9 152 254 245 270 260 198 134 243 178 132 134 205 161 234 281 146 146 142 360 307 276 241 247 31 84 74 65 77 70 64 56 61 56 52 49 59 37 33 29 36 102 129 132 166 112 232 337 144 172 150 141 139 139 135 132 133 129 126 113 104 101 106 108 116 119 113 105 100 92 91 88 85 81 78 75 74 73 73 72 72 72 72 72 72 73 71 70 67
112 147 83 112 56 95 241 127 200 165 234 195 200 139 144 283 100 135 156 153 240 214 300 8 196 111 240 151 279 223 219 146 135 111 85 78 78 73 74 66 76 56 60 58 40 47 22 41 31 44 9 180 164 139 127 99 97 168 150 142 142 139 133 128 124 111 103 101 101 100 100 103 114 112 105 102 102 98 91 86 87 86 83 80 78 76 75 75 76 77 76 75 74 72 71 69 67
138 88 81 98 168 139 228 124 27 99 257 192 302 237 99 359 200 129 244 154 169 317 52 202 14 201 81 174 231 265 264 126 141 103 86 72 80 78 74 64 69 62 66 59 48 43 28 63 46 37 28 349 84 153 133 201 131 100 155 153 138 134 128 123 111 104 102 102 104 107 101 95 97 107 111 111 110 103 100 99 94 92 89 84 80 80 78 77 78 81 80 77 75 72 69 67 65
64 83 60 47 165 163 215 145 142 198 240 258 284 174 155 194 211 260 23 66 127 206 16 164 203 3 204 202 269 282 291 194 110 92 83 65 64 98 54 51 38 85 58 72 52 32 48 43 39 40 19 338 19 307 153 185 146 129 127 132 127 132 130 126 114 106 100 99 106 109 108 108 111 120 119 120 116 107 103 98 98 96 93 87 85 85 84 81 81 82 83 80 77 73 66 62 59
54 67 113 95 198 149 204 176 186 200 127 228 221 213 121 177 136 183 143 32 59 346 82 309 317 284 220 259 293 257 256 140 126 112 102 105 70 109 115 28 11 51 3 357 45 50 38 38 35 30 5 342 349 356 172 161 187 158 129 126 127 131 126 122 113 103 105 90 120 121 116 114 120 121 122 120 107 113 109 106 102 100 94 89 88 88 88 85 82 81 80 78 75 70 65 61 56
88 123 86 199 176 233 158 198 196 121 279 196 204 62 154 207 141 221 98 279 15 112 285 15 320 304 345 346 346 89 140 136 122 124 136 147 151 149 162 23 72 27 357 355 357 6 30 28 25 20 298 340 339 358 175 157 155 153 131 116 114 135 125 135 119 114 113 124 120 113 112 121 117 122 128 128 128 123 116 108 99 99 96 94 91 89 90 87 85 83 80 79 76 70 65 65 62
190 113 167 253 204 229 208 171 196 192 136 135 177 210 153 254 154 107 217 161 50 209 218 301 260 243 226 244 23 114 138 140 132 135 138 141 153 155 146 150 104 75 312 333 324 341 12 20 5 337 328 352 358 358 308 153 139 153 134 127 126 141 129 138 130 130 131 133 104 106 119 117 120 121 114 124 118 110 106 100 92 89 91 88 88 82 76 80 81 78 77 75 72 72 71 65 66
198 69 158 216 186 118 220 184 225 198 158 148 146 112 167 274 212 157 168 116 256 257 229 190 210 215 203 207 203 180 152 147 143 140 137 137 135 138 173 174 135 316 302 290 304 329 347 23 357 334 335 339 353 328 297 113 155 151 145 143 142 138 143 141 141 136 135 132 136 138 146 136 126 123 130 138 129 125 123 113 104 97 96 94 96 91 85 76 71 74 68 63 66 74 73 64 66
91 47 190 169 144 18 222 195 168 144 161 111 121 137 222 79 52 147 148 188 235 211 240 218 226 196 173 185 196 171 168 165 170 163 166 165 167 170 171 278 296 260 302 10 344 331 335 334 328 304 315 309 283 262 287 229 74 167 153 139 143 146 152 142 147 133 135 146 147 152 157 146 150 138 147 151 136 135 131 122 111 115 103 97 97 97 81 75 68 69 70 69 66 71 75 74 67
36 330 325 202 220 153 322 163 192 126 132 145 142 221 81 151 245 199 179 212 230 219 265 252 228 205 180 128 144 167 175 182 182 184 173 169 172 180 184 188 153 214 342 312 306 304 315 322 319 325 312 302 289 264 195 43 137 186 166 155 147 153 152 145 142 134 136 131 136 146 143 128 116 123 128 112 122 137 138 124 117 116 112 107 99 99 86 75 74 73 71 72 74 78 78 77 73
108 169 332 231 191 264 79 352 116 131 129 198 206 63 179 132 249 98 215 247 251 270 277 250 224 153 138 148 177 176 183 183 192 190 194 184 178 181 179 174 208 229 66 315 318 308 307 301 294 298 308 300 304 291 25 39 120 140 142 139 137 136 138 138 128 137 142 136 127 123 120 125 132 116 105 85 65 92 56 108 111 108 97 94 90 94 101 92 87 84 83 74 76 75 80 76 76
78 55 210 227 114 257 310 90 98 108 203 340 102 147 245 182 199 32 252 245 233 28 85 92 110 120 136 151 172 172 173 183 185 197 220 255 201 189 218 256 235 109 312 309 306 328 292 274 296 305 299 284 258 204 96 65 81 91 119 121 113 127 117 122 138 130 147 132 114 119 130 123 113 113 110 104 103 90 94 81 90 96 95 93 90 76 87 101 91 89 84 80 75 79 78 77 78
124 229 130 330 20 324 315 35 89 52 330 121 109 260 280 269 247 256 245 248 184 128 79 109 122 135 164 175 175 173 180 187 177 174 191 196 205 156 213 203 165 135 211 293 321 295 309 312 308 285 261 246 213 154 118 114 94 93 70 112 113 107 113 120 102 106 142 129 109 115 111 117 124 125 113 114 110 109 103 95 82 81 89 96 96 91 78 89 102 93 88 81 82 82 82 80 80
133 126 96 106 310 355 36 195 356 354 236 163 198 266 280 342 95 275 347 199 139 97 110 119 151 168 181 177 187 197 182 191 185 156 125 180 209 191 214 233 167 201 250 266 292 291 277 278 258 240 246 239 204 144 111 107 99 94 75 100 110 105 99 107 105 105 95 82 104 115 109 112 116 117 118 119 110 111 112 116 112 104 83 70 94 93 87 90 88 86 85 90 91 90 84 79 83
48 135 80 19 338 299 238 340 274 128 274 169 178 256 238 311 79 241 228 176 176 141 163 170 185 188 189 198 198 203 208 202 172 164 185 185 201 194 201 192 192 274 202 252 244 284 295 292 276 232 222 205 143 124 108 106 106 100 117 109 86 77 97 97 95 97 98 86 87 102 112 111 107 94 109 114 111 109 100 97 98 100 100 91 94 106 97 88 94 90 85 87 94 92 87 81 78
284 156 299 300 357 345 357 211 284 160 248 155 171 310 274 166 234 243 342 117 147 148 176 203 210 214 218 219 220 215 213 200 189 202 209 200 179 189 190 197 166 222 245 242 293 300 308 321 326 342 111 117 118 120 113 94 117 113 100 84 102 96 76 81 86 98 101 96 93 90 88 103 99 108 82 98 103 103 106 102 95 99 107 113 106 105 105 108 101 97 95 100 92 89 89 86 80
274 33 91 338 360 328 311 280 26 145 247 142 180 281 257 241 241 249 121 140 101 140 213 220 225 224 231 231 227 237 239 208 214 214 206 203 195 195 186 189 185 212 216 281 304 273 322 306 326 51 68 88 93 93 103 106 84 112 91 81 92 94 83 88 76 86 91 100 96 86 87 86 103 102 111 97 98 103 102 101 107 102 108 112 111 115 108 109 106 106 107 97 85 90 88 88 88
140 268 63 52 14 273 293 79 205 154 199 159 69 218 283 259 269 283 229 160 164 203 222 224 226 232 229 227 227 229 235 217 219 217 221 214 206 195 190 182 191 197 196 251 229 235 308 8 5 89 76 92 91 91 91 93 43 101 97 81 70 95 79 77 89 82 86 87 91 88 88 89 95 104 102 110 106 105 104 105 103 107 106 109 107 98 108 98 96 100 109 98 90 84 87 77 84
20 39 293 326 157 279 297 236 174 165 348 44 116 281 251 280 273 311 249 184 183 221 226 228 228 227 227 227 228 232 238 232 241 236 226 220 202 195 196 190 189 188 197 207 189 151 70 36 59 101 88 96 91 89 85 78 74 88 98 74 61 90 84 72 75 75 84 97 92 88 84 94 101 98 95 106 109 105 106 104 100 103 103 96 92 94 92 97 99 94 79 109 106 93 92 78 77
354 118 268 262 115 265 337 3 254 347 107 348 180 228 326 302 284 316 171 178 207 234 253 240 234 233 229 227 228 237 248 249 244 235 225 211 212 198 198 195 194 193 185 197 176 132 116 85 78 100 103 105 105 89 83 85 75 80 74 81 54 71 83 72 73 75 71 90 99 97 93 93 96 93 90 99 108 110 108 104 106 104 97 101 99 95 91 91 108 97 72 56 105 111 98 98 82
291 25 220 204 191 252 263 303 215 266 128 204 264 226 239 245 250 343 191 182 194 233 247 245 235 231 226 227 228 230 228 228 228 216 216 202 205 201 203 196 186 173 186 191 173 159 137 117 98 97 100 96 99 97 99 95 88 81 73 81 70 68 67 60 58 73 73 78 97 108 105 91 90 95 99 103 100 101 105 110 108 104 107 106 101 94 77 88 85 106 95 63 85 107 105 106 102
212 197 308 290 261 208 251 315 251 121 348 208 247 239 262 266 271 243 225 193 197 228 233 240 240 235 231 226 228 229 227 222 228 198 193 194 199 201 198 187 177 172 164 172 156 135 126 115 113 104 108 113 99 103 103 96 85 82 73 76 77 69 65 59 53 55 52 79 84 105 100 95 90 95 103 104 106 108 105 100 100 100 110 110 105 102 101 100 94 91 105 93 65 71 104 104 110
205 170 185 175 210 227 201 238 277 181 202 233 223 227 244 260 268 271 230 200 205 239 258 267 252 236 229 225 230 227 225 234 210 184 186 188 189 188 191 176 179 174 162 165 151 142 137 126 108 114 111 122 112 103 113 104 93 96 99 91 74 59 58 73 57 54 30 80 72 85 92 94 95 96 97 98 102 107 107 107 107 107 109 112 108 108 112 115 118 108 103 109 101 82 65 91 102
98 95 116 209 222 286 278 265 260 267 334 231 229 240 247 264 265 265 255 182 236 255 256 251 244 232 227 230 229 229 225 232 165 186 185 185 190 191 183 174 183 174 173 166 155 157 163 147 139 136 140 139 136 143 129 131 125 112 80 83 109 73 72 91 77 67 47 49 78 75 85 93 96 96 95 110 112 106 102 107 105 92 100 101 104 107 112 110 111 114 112 102 115 112 80 49 62
147 121 191 280 153 255 241 270 17 316 172 294 275 269 257 255 266 268 262 150 246 236 244 249 248 232 230 228 232 226 225 97 152 183 197 191 188 190 179 184 179 179 182 173 168 169 167 155 147 142 145 144 133 147 138 131 90 175 137 139 116 110 96 105 100 33 58 59 74 80 77 87 94 97 100 105 109 116 119 109 103 109 106 100 99 104 106 114 120 121 122 95 28 112 115 354 332
59 195 219 298 267 254 280 279 339 289 118 263 288 279 264 254 254 263 254 234 240 234 226 240 240 241 233 232 233 227 185 208 180 201 188 194 189 188 184 187 191 187 178 180 174 165 163 159 156 152 157 155 152 123 111 114 109 95 112 118 113 105 51 53 93 83 59 66 49 68 70 79 95 96 97 100 108 110 113 112 109 110 110 120 113 107 116 119 128 133 136 129 113 51 97 46 30
162 108 162 237 224 25 297 310 11 100 179 268 315 294 278 263 248 249 249 235 244 254 249 249 241 245 237 231 222 212 215 202 200 193 194 191 190 189 185 189 190 186 179 180 176 171 167 165 159 158 156 152 140 115 106 88 94 94 82 93 82 69 119 109 92 79 76 42 45 58 56 66 82 94 92 97 102 101 113 115 117 113 110 118 126 128 125 122 119 115 114 121 127 116 59 48 29
240 194 210 244 221 230 191 262 309 265 354 54 315 278 274 226 251 263 265 275 249 258 257 257 255 239 248 278 219 208 212 203 198 192 194 188 190 195 190 185 179 190 186 181 176 174 170 166 163 161 153 150 132 126 124 127 114 90 93 88 89 93 86 111 94 63 25 61 83 60 48 56 78 90 90 96 109 112 109 111 113 109 108 101 107 113 112 112 102 101 116 124 120 137 121 111 31
282 227 199 219 219 238 274 343 5 360 335 349 47 324 282 277 236 249 277 339 293 258 254 256 254 253 220 234 235 218 221 202 196 194 193 190 191 185 186 184 187 189 188 182 176 174 165 163 160 154 146 142 142 138 141 144 145 137 134 127 128 128 135 145 144 145 154 132 105 97 61 64 73 87 92 98 95 104 104 97 99 104 99 89 88 97 106 99 84 86 67 117 96 56 128 112 92
221 273 198 213 214 203 259 276 51 299 253 309 39 60 290 194 242 243 263 258 256 274 258 258 262 263 235 233 233 213 210 204 200 191 184 185 195 188 189 190 188 186 186 170 173 175 167 163 159 156 152 147 145 149 152 149 149 159 156 160 158 157 146 111 83 77 113 101 104 107 97 77 56 84 86 83 87 86 95 91 94 97 98 100 100 102 93 96 96 90 84 87 96 118 119 108 126
236 250 149 174 157 198 226 185 186 237 263 297 51 123 271 296 237 221 222 225 258 285 275 262 254 256 246 239 231 217 209 200 191 193 190 195 190 191 191 188 184 185 168 166 171 173 170 166 159 157 149 150 154 155 161 168 160 162 146 127 131 140 147 145 139 122 104 110 104 96 101 79 69 61 92 89 90 97 106 101 106 107 104 104 107 102 111 118 106 83 83 91 80 67 102 126 140
218 231 135 149 174 190 129 149 185 219 27 288 304 174 300 257 276 341 115 178 263 256 256 266 265 255 249 243 231 221 210 200 189 188 192 191 193 196 187 183 182 167 170 174 173 169 166 162 160 155 156 154 158 163 162 169 167 156 144 137 122 82 100 111 114 114 121 119 108 102 96 97 89 75 76 102 100 108 109 116 114 109 107 109 109 106 101 102 102 109 98 87 92 75 82 114 109
246 125 92 84 79 67 110 99 105 316 45 261 192 183 206 278 180 139 353 165 250 244 250 259 265 267 255 246 241 227 212 200 198 200 191 192 192 189 185 169 169 176 171 168 162 163 166 163 162 161 160 162 161 163 163 163 154 140 141 144 137 129 118 97 76 125 133 141 126 120 114 112 110 99 86 88 99 96 104 104 105 107 106 105 96 101 99 88 85 85 91 101 102 94 69 84 100
133 101 75 24 42 35 27 65 87 29 264 253 186 202 158 278 179 182 150 207 203 233 276 278 284 287 272 253 246 220 204 195 191 190 189 188 181 178 171 176 177 165 165 170 169 171 168 166 165 168 166 161 163 164 165 168 156 155 153 154 149 136 133 134 132 129 135 138 138 134 130 125 115 116 110 92 98 110 104 107 108 102 103 105 103 100 101 106 104 103 101 95 94 104 102 98 89
127 103 121 75 340 12 35 337 39 101 266 13 279 193 182 220 289 274 245 284 253 214 236 265 279 272 264 267 255 226 199 190 180 177 178 166 162 178 177 178 178 174 171 176 176 175 173 170 167 166 165 166 167 167 170 170 164 161 160 160 163 153 148 153 152 156 167 158 152 141 135 125 123 121 120 120 117 119 118 107 107 109 107 107 102 109 114 117 117 112 108 106 103 101 106 101 106
89 93 94 122 246 31 285 22 263 194 235 175 347 138 349 240 242 244 278 266 253 212 224 236 247 262 265 259 255 229 201 182 185 184 172 177 180 179 184 182 178 181 182 181 181 177 173 172 171 168 171 168 170 170 174 170 165 167 166 169 171 164 157 156 157 155 164 160 158 148 153 150 149 142 158 141 151 147 134 126 126 122 115 113 124 121 125 124 121 116 114 109 113 114 118 117 111
144 160 149 119 144 213 258 272 269 310 294 264 49 92 253 306 288 220 246 249 239 227 231 236 238 254 261 247 230 217 208 199 194 186 185 186 185 186 185 181 183 184 184 183 179 176 175 175 174 173 173 172 171 172 172 170 176 170 169 171 171 166 162 159 160 159 164 162 162 160 162 161 161 162 159 161 159 149 135 132 127 118 122 130 131 128 127 126 122 119 120 117 116 121 116 111 112
203 93 163 182 151 159 209 203 220 231 229 279 286 93 232 118 245 260 242 270 293 251 254 254 263 261 273 283 258 232 218 213 195 194 193 190 190 185 184 184 184 185 185 182 179 179 174 176 176 175 170 176 174 177 173 176 173 167 168 170 172 169 160 162 165 164 159 160 165 161 159 161 160 161 161 153 150 142 135 129 128 130 138 137 135 130 125 120 118 114 113 117 115 123 116 114 115
216 165 65 90 222 138 235 203 174 268 333 334 207 212 193 195 266 284 255 279 281 248 251 258 267 262 252 268 242 227 220 209 200 202 200 196 188 184 184 186 186 184 185 182 181 180 180 182 179 179 174 175 178 175 180 176 170 165 165 169 176 171 163 153 150 157 157 153 162 164 160 163 157 148 143 143 148 139 138 131 131 137 140 138 137 133 133 130 133 125 125 127 122 133 121 118 124
206 111 207 206 177 125 71 34 67 93 40 257 138 278 280 300 275 240 247 249 257 269 266 245 253 252 232 252 238 228 219 208 204 205 200 190 184 189 189 185 183 183 186 188 185 183 183 177 179 180 178 176 176 178 174 170 164 165 173 173 169 167 165 166 167 165 162 152 157 163 158 155 142 145 145 144 136 129 128 132 134 137 138 136 133 135 136 136 137 132 135 135 130 134 123 128 134
99 195 229 152 115 105 147 227 337 77 210 273 130 245 289 48 282 353 18 247 267 272 255 252 261 264 230 245 236 223 216 212 210 210 204 194 191 188 188 189 187 187 187 187 186 180 181 180 179 179 174 174 178 175 170 167 167 171 170 174 178 177 170 169 164 163 157 150 155 152 144 150 160 155 144 139 130 128 124 127 131 132 129 133 136 135 133 134 129 124 132 128 134 132 122 120 129
146 194 197 126 235 249 286 90 255 228 249 277 284 278 261 193 252 81 261 231 255 249 246 294 274 232 233 250 249 237 228 215 203 201 194 191 192 190 189 191 190 188 186 187 180 173 174 178 181 179 175 177 175 169 164 165 171 172 176 176 173 171 172 163 157 154 155 157 162 161 161 153 139 144 138 134 131 130 133 132 134 131 128 125 114 117 120 122 123 123 121 123 129 130 126 127 136
47 74 124 88 100 170 132 197 181 121 263 34 287 52 274 172 222 177 225 211 220 239 318 272 250 231 226 242 243 223 214 212 207 200 199 194 194 192 189 188 187 186 182 180 176 171 175 173 172 174 168 169 164 162 164 173 179 172 169 163 170 170 163 163 162 161 167 167 163 157 156 157 155 137 135 132 135 142 145 144 143 136 128 120 119 115 125 124 118 120 127 127 136 129 127 133 138
148 137 197 167 175 244 113 28 140 176 181 184 282 304 262 237 199 180 208 217 223 214 233 247 257 217 229 236 230 220 212 208 207 203 198 195 195 191 191 189 184 177 176 170 176 179 172 165 175 176 171 168 171 174 173 178 168 172 167 172 172 169 165 156 153 165 163 158 154 156 156 145 131 142 138 141 146 148 147 148 143 142 139 138 137 138 138 135 127 130 131 138 141 138 134 137 137
179 182 193 185 149 161 143 253 58 114 142 243 156 253 275 242 170 197 195 220 210 249 215 229 252 222 222 238 243 209 207 208 203 201 193 195 190 187 183 174 168 171 177 175 177 171 171 176 180 175 173 176 174 177 178 169 173 168 170 170 173 165 154 150 159 165 167 162 159 158 147 136 147 142 147 150 151 148 146 146 143 138 138 137 138 143 150 145 142 141 146 153 147 140 141 147 149